Terug naar catalogus

STARLINK-3647

ActiefCommunicatieVLEO
NORAD 51994·PAYLOAD·🇺🇸 United States

Gelanceerd Mar 9, 2022 vanaf Cape Canaveral Space Force Station

Loading…

Volgende Passages (komende 24 uur)

TLE

VersSource: CelesTrak SupGP

Epoch: Sep 15, 2026, 02:47 UTC

1 51994C 22025AQ  26258.11645833 -.00025025  00000+0 -73936-3 0  2587
2 51994  53.1593 238.5524 0001593  89.1550 168.4221 15.34403133    13

Volg STARLINK-3647 in realtime met AllMySat

Download on the App Store